This is the latest recevied weather packets stored in our database for station/object WA1TYB-13. If no packets are shown the sender has not sent any weather packets the latest 10 day(s).
| Time | Temp. | Humidity | Pressure | Rain* | Wind** | Luminosity | Snow |
|---|---|---|---|---|---|---|---|
| 1787782697 | 30.56° C | 19% | 1019.7 hPa | 0 mm | - | 147 W/m² | - |
| 1787782393 | 30.56° C | 17% | 1019.8 hPa | 0 mm | - | 177 W/m² | - |
| 1787782088 | 30.56° C | 21% | 1019.9 hPa | 0 mm | - | 200 W/m² | - |
| 1787781783 | 30.56° C | 22% | 1019.8 hPa | 0 mm | - | 210 W/m² | - |
| 1787781481 | 31.11° C | 20% | 1019.7 hPa | 0 mm | - | 255 W/m² | - |
| 1787781175 | 31.67° C | 21% | 1019.8 hPa | 0 mm | - | 385 W/m² | - |
| 1787780874 | 31.67° C | 19% | 1019.9 hPa | 0 mm | - | 393 W/m² | - |
| 1787780568 | 31.67° C | 22% | 1019.9 hPa | 0 mm | - | 549 W/m² | - |
| 1787780263 | 31.11° C | 21% | 1020 hPa | 0 mm | - | 553 W/m² | - |
| 1787779959 | 30° C | 23% | 1020 hPa | 0 mm | - | 563 W/m² | - |
| 1787779654 | 30° C | 22% | 1020 hPa | 0 mm | - | 207 W/m² | - |
| 1787779353 | 30° C | 22% | 1020 hPa | 0 mm | - | 153 W/m² | - |
| 1787779048 | 30.56° C | 22% | 1020 hPa | 0 mm | - | 595 W/m² | - |
| 1787778743 | 30° C | 22% | 1020.7 hPa | 0 mm | - | 425 W/m² | - |
| 1787778440 | 30.56° C | 21% | 1020.3 hPa | 0 mm | - | 196 W/m² | - |
| 1787778135 | 30.56° C | 22% | 1020.5 hPa | 0 mm | - | 610 W/m² | - |
| 1787777834 | 30° C | 23% | 1020.7 hPa | 0 mm | - | 346 W/m² | - |
| 1787777531 | 30° C | 23% | 1020.4 hPa | 0 mm | - | 495 W/m² | - |
| 1787777231 | 30.56° C | 21% | 1020.7 hPa | 0 mm | - | 344 W/m² | - |
| 1787776930 | 30° C | 21% | 1020.8 hPa | 0 mm | - | 123 W/m² | - |
| 1787776629 | 31.11° C | 18% | 1020.7 hPa | 0 mm | - | 585 W/m² | - |
| 1787776329 | 31.11° C | 22% | 1020.7 hPa | 0 mm | - | 635 W/m² | - |
| 1787776027 | 31.11° C | 21% | 1020.9 hPa | 0 mm | - | 617 W/m² | - |
| 1787775722 | 30.56° C | 22% | 1020.9 hPa | 0 mm | - | 603 W/m² | - |
| 1787775421 | 30.56° C | 20% | 1021.3 hPa | 0 mm | - | 577 W/m² | - |
* Rain latest hour (hover to see other rain measurements)
** Current wind speed in m/s (hover to see current wind gust speed)